Regional Weather Roundup
Issued by NWS

Home | Current Version | Previous Version | Text Only | Print | Product List | Glossary On
Versions: 1 2 3 4 5 6 7 8 9 10 11 12 13 14 15 16 17 18 19 20 21 22 23 24 25 26 27 28 29 30 31 32 33 34 35 36 37 38 39 40 41 42 43 44 45 46 47 48 49 50
000
ASUS43 KDMX 240107
RWRIA

WEATHER ROUNDUP FOR IOWA
NATIONAL WEATHER SERVICE DES MOINES IA
800 PM CDT WED JUL 23 2014

NOTE: "FAIR" INDICATES FEW OR NO CLOUDS BELOW 12,000 FEET WITH NO
SIGNIFICANT WEATHER AND/OR OBSTRUCTIONS TO VISIBILITY.

* - THESE STATIONS ARE NOT NWS STATIONS...THUS NOT UNDER NWS
QUALITY CONTROL.  THEY ALSO DO NOT REPORT WEATHER SUCH
AS PRECIPITATION OR FOG.

IAZ001>003-012>014-020>022-031>034-043>046-240200-
   NORTHWEST IOWA

CITY           SKY/WX    TMP DP  RH WIND       PRES   REMARKS
CARROLL *      CLEAR     75  63  64 NE5       30.16S
CHEROKEE *     CLEAR     77  61  57 NE5       30.16S
DENISON *      CLEAR     77  64  65 NE5       30.14S
LE MARS *      CLEAR     79  59  50 NE7       30.17S HX  80
ORANGE CITY *  CLEAR     79  57  47 E5        30.18S HX  80
SHELDON *      CLEAR     75  61  60 NE6       30.17F
SIOUX CITY     CLEAR     79  58  48 NE7       30.15S HX  80
SPENCER        CLEAR     76  61  59 NE7       30.18S
STORM LAKE *   CLEAR     75  64  69 E6        30.17F
$$

IAZ055>058-069>071-079>083-090>094-240200-
   SOUTHWEST IOWA

CITY           SKY/WX    TMP DP  RH WIND       PRES   REMARKS
ATLANTIC *     CLEAR     77  64  65 NE6       30.14S
AUDUBON *      CLEAR     79  70  73 CALM      30.17S HX  81
CLARINDA *     CLEAR     79  64  61 NE7       30.14S HX  81
COUNCIL BLFS * CLEAR     77  64  65 NE7       30.13S
CRESTON *      CLEAR     75  63  64 NE8       30.15S
HARLAN  *      CLEAR     77  64  65 NE6       30.18S
LAMONI         CLEAR     75  61  61 NE8       30.14S
RED OAK *      CLEAR     79  64  61 NE8       30.13S HX  81
SHENANDOAH *   CLEAR     79  64  61 NE8       30.13R HX  81
$$

IAZ047>049-059>061-072>074-084-240200-
   CENTRAL IOWA

CITY           SKY/WX    TMP DP  RH WIND       PRES   REMARKS
AMES           CLEAR     75  57  53 NE7       30.15S
ANKENY *       CLEAR     75  59  57 NE5       30.15R
CHARITON *     CLEAR     75  61  60 NE6       30.16R
DES MOINES     PTCLDY    79  56  45 E9        30.14S HX  80
GRINNELL*      CLEAR     73  61  64 NE3       30.16S
KNOXVILLE *    CLEAR     75  57  53 NE6       30.14R
MARSHALLTOWN   CLEAR     75  61  61 NE3       30.15S
PELLA *        CLEAR     77  57  50 CALM      30.16R
PERRY *          N/A     75  61  60 NE3       30.15S
$$

IAZ004>006-015-016-023>025-035-036-240200-
   NORTH CENTRAL IOWA

CITY           SKY/WX    TMP DP  RH WIND       PRES   REMARKS
ALGONA *       CLEAR     75  61  60 NE8       30.18S
CLARION *      CLEAR     75  61  60 N5        30.16F
ESTHERVILLE    CLEAR     74  55  51 N8        30.18F
FORT DODGE *   CLEAR     75  61  60 NE3       30.17S
MASON CITY     CLEAR     74  60  61 N6        30.18S
FOREST CITY *  CLEAR     73  57  56 N5        30.18R
IOWA FALLS *     N/A     75  57  53 CALM      30.18R
$$

IAZ007>011-017>019-026>030-037>042-050>054-066-240200-
   NORTHEAST IOWA

CITY           SKY/WX    TMP DP  RH WIND       PRES   REMARKS
CEDAR RAPIDS   CLEAR     74  55  51 N7        30.14R
CHARLES CITY * CLEAR     73  59  60 N5        30.17S
CLINTON *      CLEAR     72  59  64 NE6       30.16S
DECORAH *      CLEAR     73  59  60 CALM      30.15F
DUBUQUE        CLEAR     71  57  61 N7        30.15S
MONTICELLO *   CLEAR     73  61  64 CALM      30.14S
OELWEIN *      CLEAR     73  59  60 N3        30.17R
WATERLOO       CLEAR     75  58  55 NE3       30.14S
$$

IAZ064-065-067-068-078-240200-
   EAST CENTRAL IOWA

CITY           SKY/WX    TMP DP  RH WIND       PRES   REMARKS
DAVENPORT      CLEAR     73  59  61 N6        30.13S
IOWA CITY      CLEAR     76  57  51 NE8       30.15R
MT. PLEASANT * CLEAR     72  59  64 N5        30.14R
MUSCATINE *    CLEAR     73  61  64 N5        30.13S
QUAD CITIES    CLEAR     75  54  47 NE7       30.12R
$$

IAZ062-063-075>077-085>089-095>099-240200-
   SOUTHEAST IOWA

CITY           SKY/WX    TMP DP  RH WIND       PRES   REMARKS
BURLINGTON     CLEAR     74  58  57 N10       30.13R
FAIRFIELD *    CLEAR     73  59  60 NE5       30.15R
FORT MADISON * CLEAR     72  61  68 CALM      30.14S
KEOKUK *       CLEAR     73  57  56 N6        30.13R
OSKALOOSA *      N/A     73  59  60 NE6       30.15S
CENTERVILLE *  PTCLDY    73  61  64 NE6       30.16S
OTTUMWA        PTCLDY    75  58  55 NE5       30.15R
WASHINGTON *   CLEAR     73  61  64 NE5       30.14S
$$

ABBREVIATIONS USED IN REMARKS
   TC - TEMPERATURES IN CELSIUS
  WCI - WIND CHILL INDEX
   HX - HEAT INDEX
  VSB - VISIBILITY
$$




USA.gov is the U.S. government's official web portal to all federal, state and local government web resources and services.